Weather in Kolybelka

Russia / Voronezh Oblast     50°50′07″N   39°49′17″E
temp.,
°C
wind,
m/s
gust,
m/s
humid.,
%
clouds,
%
prec.,
mm/h
press.,
hPa
HPBL,
m
2 march, tue
tue200:00−2wsw499083 0.0 1027260
03:00−2wsw5119259 0.0 1025479
06:00−1wsw61283100 0.0 1022689
09:00−1wsw81483100 0.0 1020743
12:00+1w81384100 0.0 1017951
15:00+1w71394100 0.1 1015662
18:00+1w71397100 0.4 1013617
21:000wnw51098100 1.3 1012418
3 march, wed
wed300:000nw4998100 0.6 1011444
03:00−1nnw4109391 0.6 1013446
06:00−2nw5119018 0.0 1014458
09:00−1nw7108721 0.0 1016734
12:00−1nnw8107197 0.3 10171234
15:00−1nnw8116298 0.3 10191299
18:00−2nw4107525 0.0 1020489
21:00−2w4118213 0.0 1021388
4 march, thu
thu400:00−2w5118415 0.0 1021366
03:00−1wsw598856 0.0 1020342
06:00−2wsw5119332 0.0 1019320
09:00−1wsw7128330 0.0 1018559
12:00+3wsw812670 0.0 1015845
15:00+5wsw814560 0.0 10131028
18:00+3sw716660 0.0 1010597
21:00+2sw818700 0.0 1010654
5 march, fri
fri500:00+2sw8188024 0.0 1008575
03:00+3wsw8169062 0.0 1008606
06:00+2sw61293100 0.1 1008413
09:00+3sw71392100 0.1 1009478
12:00+4sw71186100 0.0 1009461
15:00+5sw61282100 0.0 1008811
18:00+4sw61486100 0.3 1006634
21:00+5ssw61686100 0.4 1005613
6 march, sat
sat600:00+4wsw51394100 1.9 1005493
03:00+2wnw61097100 3.6 1006458
06:00−2nnw6990100 0.3 1008494
09:00−2nnw687798 0.3 1011795
12:000nw686198 0.1 10131414
15:000nnw674667 0.1 10131767
18:00−2nnw36570 0.0 1014250
21:00−3n23650 0.0 1016150